STARLINK-2363 (47903 NORAD) Tracking and Keplerian Element Data

This shows tracking and keplerian element data for the satellite.

Feedback or suggestion? Click here.




ElementValue
Catalog47903
NameSTARLINK-2363
Epoch Orbit198
Epoch Day173.91668981
Epoch Year2021
RAAN78.5755
Inclination53.0498
Eccentricity0.000274
Argument of Perigee15.2245
Mean Anonmoly199.8474
Mean Motion15.73213082
Decay Rate-1.38E-06
L11 47903U 21021AV 21173.91668981 -.00000138 00000-0 34544-5 0 9999
L22 47903 53.0498 78.5755 0002740 15.2245 199.8474 15.73213082 1985

Live tracking and technical data element details for STARLINK-2363 (NORAD 47903). STARLINK-2363 can be tracked NOW for your location showing map with azimuth and elevation plus other details from your city location.

Track the satellite on the map from your city or location and see movement details for azimuth, elevation, latitude, longitude, range, height, and movement on the map or in text.







IsCatalogInMostPopularTable: catalog: 47903, numindb: 44
Update: records affected: 1



GetName: 47903 STARLINK-2363

Hit Count: updated at: Thu, 24 Jun 2021 04:16:56 GMT